Wind_Speed
13 13 13 13 13 13 13 13 13 13 12 12 13 13 12 11 11 10 10 8 10 8 4 10 8 7 7 5 6 5 4 3 6 4 7 6 4 5 3 7 5 5 2 9 18
14 14 14 14 14 14 14 14 15 14 14 13 13 13 13 13 11 8 11 10 11 10 8 12 10 9 4 4 4 7 4 5 5 4 2 6 6 8 5 7 7 8 4 13 18
15 15 16 16 16 16 16 16 16 16 15 14 14 13 13 13 3 1 7 11 11 10 11 9 7 6 9 4 4 1 6 8 5 3 4 5 9 8 6 6 6 11 12 18 18
15 16 17 18 18 17 17 16 17 17 16 15 15 14 13 8 2 2 5 11 14 12 12 8 8 7 7 7 1 9 4 7 8 6 5 7 7 9 10 5 3 9 17 21 20
16 16 17 17 19 19 18 18 18 18 17 16 15 15 12 6 3 3 8 11 14 12 12 10 10 9 9 5 11 11 12 10 8 8 10 9 11 12 10 9 6 13 19 22 20
17 17 17 19 19 19 19 19 19 18 17 16 15 15 10 9 6 7 10 13 12 13 11 13 7 10 9 10 9 14 13 17 11 10 8 12 11 10 7 12 12 17 19 20 21
18 19 19 18 19 19 18 18 19 19 17 15 15 14 11 12 7 9 12 12 13 10 9 10 11 10 2 9 8 10 15 15 2 5 1 10 11 14 14 12 14 18 20 20 20
19 19 19 20 20 20 19 18 19 18 17 15 13 11 9 12 9 12 14 13 14 11 9 6 7 10 12 5 9 10 10 14 9 0 3 7 5 3 7 14 16 17 19 21 22
20 20 19 20 20 20 18 18 18 17 16 13 10 6 10 9 13 13 17 11 13 10 9 8 6 11 7 12 13 12 14 11 7 0 1 8 11 7 3 11 15 16 18 20 21
22 22 21 20 20 19 16 16 15 14 13 10 10 6 13 5 6 7 15 15 11 11 9 9 9 11 12 12 14 16 11 11 11 1 7 10 12 12 9 9 13 15 17 21 23
22 23 22 21 19 18 16 8 7 5 8 14 1 10 2 4 7 9 11 14 14 16 15 14 12 15 18 16 17 10 11 16 14 4 11 15 13 12 12 11 14 15 17 22 26
21 23 23 21 18 14 9 5 2 5 10 14 21 23 20 8 5 12 12 16 16 18 18 11 17 18 6 11 11 16 16 19 16 9 10 13 12 14 14 13 13 16 17 21 22
20 21 22 20 17 8 6 3 4 8 8 11 16 18 19 17 21 19 18 20 16 19 17 20 18 9 11 13 15 17 18 17 17 11 10 14 16 15 11 7 9 12 13 19 22
21 21 21 18 8 12 3 5 6 4 6 9 9 12 13 13 11 25 23 19 14 16 18 17 20 11 12 15 15 17 14 14 17 17 15 10 12 7 7 9 5 3 9 15 21
20 20 18 16 17 7 6 6 8 2 6 5 10 5 8 17 5 14 26 26 20 16 10 16 13 14 19 20 14 15 6 9 12 14 16 16 9 14 4 9 7 5 4 7 17
19 20 18 17 16 8 8 6 2 7 11 4 5 10 12 17 15 6 13 23 25 21 16 20 8 10 16 15 14 6 8 10 9 13 15 20 12 14 11 2 6 2 9 10 7
19 20 19 16 7 9 5 3 6 10 3 7 5 8 8 13 16 17 14 19 17 19 19 17 17 14 11 11 12 10 13 10 11 11 14 5 8 13 12 6 8 9 12 9 1
21 20 17 14 12 9 5 8 12 6 16 4 4 8 11 7 13 20 19 19 23 24 15 18 17 20 16 20 15 18 16 11 13 12 12 7 9 11 2 5 6 7 7 3 5
22 18 12 9 9 12 10 14 9 13 4 7 11 10 10 7 6 11 21 20 20 21 20 12 18 4 14 17 18 13 10 15 13 10 9 9 6 7 13 10 12 6 3 6 9
23 16 5 6 6 12 10 17 12 3 7 5 8 2 6 2 8 8 14 14 20 21 24 14 12 10 10 9 8 14 8 10 10 16 10 10 7 9 9 9 5 2 5 8 11
17 7 6 4 9 10 10 16 15 10 6 6 4 5 5 3 8 6 7 5 9 12 18 15 10 10 9 13 14 12 13 12 11 5 9 9 7 4 4 7 8 5 6 9 12
5 4 4 12 8 6 11 10 3 12 12 10 7 7 9 9 8 5 6 1 1 8 16 19 11 14 14 6 4 9 16 20 12 14 12 10 11 7 5 4 5 4 5 8 10
10 5 3 1 5 7 7 10 11 12 12 10 12 9 8 7 5 4 2 4 3 6 7 10 13 13 17 9 7 11 13 11 10 8 12 10 7 5 8 8 5 1 6 8 9
5 3 4 8 5 5 3 8 11 8 13 16 16 14 13 12 10 7 5 3 1 2 1 5 7 14 15 17 15 19 17 14 14 11 13 13 6 9 10 11 11 2 4 8 11
3 1 3 3 9 9 4 8 11 9 10 8 12 18 15 15 14 13 12 6 4 3 3 5 7 9 15 9 8 12 19 15 16 18 10 10 8 8 9 12 10 6 4 8 11
5 5 5 10 6 6 3 5 11 9 11 11 13 14 15 17 15 10 10 6 4 2 1 1 2 4 7 7 11 12 10 13 14 6 6 5 11 8 6 9 12 12 2 8 11
5 5 5 3 5 4 2 6 8 7 9 15 10 11 11 17 15 6 4 1 2 3 2 1 1 5 7 5 9 11 3 9 6 3 3 7 7 6 7 9 14 12 9 2 7
Wind_Direction
343 343 340 339 337 335 336 335 335 336 339 341 339 338 335 327 307 283 264 239 227 196 169 154 165 179 185 265 246 281 244 19 37 348 84 138 176 155 138 137 162 163 102 129 159
337 336 334 332 330 328 328 327 326 329 333 338 335 334 332 328 314 274 239 221 214 202 161 162 180 179 224 244 237 260 291 11 3 356 311 170 213 165 190 170 175 163 149 154 159
331 329 328 326 325 324 323 322 322 323 326 330 329 331 332 333 283 226 237 202 186 178 159 165 178 197 277 228 214 246 318 347 337 287 287 205 211 198 218 192 194 182 172 168 174
323 322 322 321 320 318 318 316 317 317 319 323 323 325 331 333 311 296 200 180 166 165 172 173 185 222 264 284 170 282 279 305 316 350 263 247 235 213 220 46 175 174 169 172 181
321 319 317 314 314 314 314 313 311 310 311 315 316 320 335 289 254 186 160 177 173 171 186 198 213 242 261 277 300 253 290 304 304 313 264 249 240 241 231 227 189 168 170 175 183
320 318 314 312 309 308 308 307 304 302 304 308 310 313 319 277 242 196 175 184 191 195 213 220 235 250 278 269 269 317 300 292 298 299 253 230 234 227 220 206 190 175 179 182 187
319 318 316 312 307 305 304 303 299 297 298 301 301 303 289 265 247 212 193 196 191 201 223 225 234 243 258 244 257 278 298 296 217 313 223 223 237 232 244 196 198 189 185 189 195
318 317 315 313 311 306 304 299 296 295 293 293 293 293 268 261 236 209 186 196 205 206 210 235 240 262 256 269 243 255 264 266 113 339 123 226 306 113 213 197 211 199 197 197 200
321 318 316 314 310 308 307 298 293 291 288 287 285 257 267 261 240 224 210 203 208 206 214 243 255 248 226 241 249 229 263 242 277 22 218 229 312 93 194 204 224 213 212 205 208
321 320 319 317 313 311 309 301 294 286 275 276 252 252 227 219 203 201 208 208 200 196 195 211 232 246 222 235 243 250 230 251 262 138 241 260 265 286 186 229 236 225 216 211 214
322 320 321 320 318 318 317 329 283 245 236 235 270 240 187 224 210 212 203 193 211 213 221 204 234 229 242 239 263 305 271 270 272 252 281 281 288 290 294 246 246 236 216 217 220
320 320 321 323 321 321 328 339 32 303 297 257 249 250 248 256 256 214 187 194 201 216 216 208 231 244 263 274 252 253 260 263 265 285 261 273 289 293 288 276 258 246 221 230 226
318 318 320 326 324 323 322 221 281 338 259 262 236 248 240 217 237 227 199 211 217 226 210 231 239 238 213 230 240 245 257 270 270 258 264 279 276 262 268 269 278 259 239 225 228
320 320 322 328 343 337 339 200 306 306 263 225 210 234 215 214 240 232 217 210 218 237 225 240 242 201 219 237 237 251 249 256 261 258 256 214 273 269 259 302 279 267 222 232 228
320 318 320 323 313 321 265 256 324 180 257 137 172 177 188 198 241 211 209 211 230 217 221 224 218 227 238 239 234 254 276 275 280 262 254 242 257 273 205 270 292 60 31 280 236
318 314 313 316 311 295 263 265 213 228 233 201 179 193 193 211 222 161 192 215 227 236 216 255 187 241 241 237 225 234 245 243 256 250 236 244 241 264 265 286 319 294 325 311 305
316 308 304 298 285 273 267 231 215 236 115 190 205 194 225 230 217 212 193 196 203 210 222 223 225 220 234 230 193 218 241 240 221 220 243 213 227 263 307 282 284 313 324 352 159
316 308 299 287 274 251 229 219 230 232 233 127 275 270 249 209 224 208 215 213 213 208 225 219 226 217 210 231 225 211 236 249 254 250 236 169 246 259 20 274 250 295 343 30 137
322 319 304 280 248 212 213 216 222 241 324 284 274 265 251 196 260 214 215 221 210 221 229 230 230 187 224 216 222 218 232 253 271 254 278 269 203 247 244 256 251 277 54 101 127
329 324 261 278 232 185 226 238 235 308 308 285 275 243 267 196 236 205 202 224 229 207 224 220 244 192 171 189 216 256 230 211 229 262 251 253 246 269 287 277 336 132 115 127 134
332 301 291 285 156 195 232 230 238 235 289 305 296 279 281 318 309 254 205 131 217 195 223 226 224 179 178 206 210 196 227 240 289 291 277 263 261 89 284 337 24 54 101 126 129
337 263 333 138 205 212 236 218 288 257 236 257 283 281 274 306 305 276 221 277 131 198 198 216 220 236 205 186 287 236 222 215 228 214 240 284 282 16 34 17 39 86 120 128 137
317 273 237 215 239 212 214 246 247 257 242 246 245 252 278 288 293 259 253 94 59 205 192 174 224 227 238 198 204 232 230 239 244 281 261 263 239 80 42 41 45 91 152 156 147
307 247 165 217 264 297 255 232 238 228 259 256 257 255 256 264 245 280 260 147 351 68 172 209 237 234 236 232 215 204 226 217 223 226 232 221 173 47 19 22 32 26 187 182 181
260 38 343 197 220 250 273 303 276 260 230 248 239 238 242 246 255 248 254 247 180 151 171 201 243 232 255 272 258 217 217 205 215 233 261 252 132 37 2 6 21 39 163 192 200
304 336 324 281 281 248 184 256 281 279 243 240 232 260 221 234 238 266 246 248 315 135 147 192 244 250 218 232 224 220 236 196 209 221 228 217 114 36 15 12 36 44 105 197 216
311 306 297 251 226 245 238 292 307 303 258 250 278 277 239 225 228 280 285 330 9 333 348 317 297 230 199 209 172 174 162 194 144 170 278 201 60 5 25 24 31 30 29 315 231
Height
1554 1552 1550 1549 1547 1546 1544 1543 1541 1540 1538 1536 1533 1531 1530 1529 1526 1525 1525 1526 1525 1525 1526 1527 1530 1531 1533 1530 1528 1525 1511 1514 1510 1510 1511 1514 1514 1519 1520 1522 1525 1527 1528 1530 1535
1554 1552 1550 1548 1546 1545 1543 1541 1540 1538 1536 1534 1532 1530 1528 1526 1524 1522 1522 1523 1523 1525 1525 1527 1530 1531 1531 1528 1526 1520 1509 1510 1506 1507 1507 1511 1514 1517 1519 1519 1524 1527 1530 1533 1535
1553 1551 1549 1547 1545 1544 1542 1540 1537 1536 1534 1533 1531 1529 1527 1525 1523 1522 1519 1521 1523 1525 1528 1530 1531 1532 1526 1523 1520 1514 1509 1506 1505 1507 1509 1508 1514 1516 1516 1517 1518 1522 1527 1532 1535
1552 1550 1548 1546 1543 1542 1540 1538 1535 1533 1532 1531 1529 1528 1525 1524 1520 1520 1519 1520 1522 1525 1528 1530 1531 1530 1524 1516 1517 1515 1508 1508 1506 1508 1509 1508 1509 1512 1514 1513 1516 1519 1523 1529 1531
1550 1548 1545 1543 1541 1539 1537 1535 1533 1531 1530 1529 1527 1526 1524 1524 1521 1519 1519 1521 1522 1525 1528 1529 1529 1527 1521 1517 1515 1512 1508 1507 1505 1507 1508 1507 1507 1509 1510 1513 1515 1518 1522 1525 1528
1548 1546 1543 1541 1539 1537 1535 1533 1531 1529 1528 1527 1526 1524 1523 1523 1519 1518 1518 1520 1522 1524 1527 1528 1527 1526 1523 1519 1517 1510 1510 1506 1503 1504 1506 1506 1504 1507 1505 1510 1514 1517 1521 1523 1525
1545 1543 1541 1539 1537 1534 1532 1530 1528 1526 1525 1524 1523 1522 1521 1520 1517 1517 1517 1519 1522 1523 1525 1525 1526 1526 1521 1517 1516 1513 1509 1500 1497 1502 1501 1504 1502 1500 1503 1507 1511 1514 1516 1520 1523
1542 1540 1538 1536 1534 1532 1529 1527 1524 1523 1522 1521 1521 1521 1517 1513 1514 1515 1516 1518 1519 1520 1523 1524 1524 1524 1522 1518 1515 1512 1507 1507 1494 1501 1503 1504 1495 1492 1497 1504 1506 1511 1514 1517 1519
1540 1538 1536 1533 1530 1528 1526 1524 1521 1520 1519 1518 1519 1519 1515 1510 1510 1512 1514 1517 1518 1520 1521 1521 1522 1520 1519 1515 1511 1505 1513 1501 1496 1499 1499 1502 1495 1495 1498 1501 1502 1506 1510 1514 1517
1537 1536 1533 1530 1527 1524 1523 1521 1518 1517 1516 1516 1516 1520 1510 1508 1509 1508 1510 1513 1516 1518 1520 1519 1518 1514 1509 1508 1520 1507 1504 1500 1504 1496 1497 1493 1491 1485 1492 1496 1497 1499 1505 1509 1511
1535 1532 1530 1528 1525 1522 1520 1518 1518 1516 1512 1508 1507 1505 1505 1506 1506 1507 1507 1510 1514 1514 1510 1512 1512 1511 1503 1500 1499 1502 1508 1508 1498 1494 1499 1492 1489 1484 1485 1486 1490 1493 1499 1502 1503
1533 1531 1527 1525 1523 1521 1519 1520 1517 1518 1511 1505 1503 1502 1502 1504 1505 1504 1506 1508 1508 1504 1504 1508 1509 1499 1502 1503 1506 1505 1507 1504 1494 1491 1496 1488 1488 1482 1480 1479 1481 1484 1491 1495 1500
1530 1527 1525 1523 1521 1520 1518 1519 1517 1516 1512 1497 1497 1496 1498 1500 1497 1498 1501 1501 1499 1499 1498 1502 1495 1496 1504 1505 1507 1503 1504 1501 1499 1490 1492 1491 1492 1480 1475 1474 1477 1479 1483 1487 1491
1529 1525 1522 1520 1522 1520 1519 1517 1516 1515 1504 1485 1488 1487 1490 1493 1490 1490 1494 1497 1495 1494 1493 1494 1491 1497 1503 1502 1500 1505 1492 1496 1498 1498 1506 1483 1505 1478 1473 1472 1469 1472 1476 1480 1483
1528 1524 1521 1519 1519 1519 1519 1516 1515 1516 1511 1474 1478 1481 1482 1484 1479 1481 1487 1490 1488 1489 1490 1492 1493 1497 1499 1494 1494 1499 1490 1496 1495 1495 1495 1490 1499 1481 1472 1476 1466 1472 1476 1476 1476
1525 1522 1518 1517 1517 1516 1515 1515 1516 1513 1506 1476 1474 1475 1478 1478 1477 1479 1483 1484 1484 1485 1486 1484 1485 1488 1487 1487 1489 1491 1495 1494 1493 1490 1502 1487 1486 1483 1469 1468 1466 1470 1472 1474 1478
1522 1519 1515 1513 1517 1514 1514 1517 1510 1502 1479 1473 1469 1469 1468 1466 1471 1472 1474 1478 1480 1492 1491 1484 1484 1484 1488 1489 1488 1492 1494 1507 1509 1502 1502 1474 1488 1479 1464 1466 1470 1471 1473 1474 1475
1517 1514 1510 1510 1509 1511 1514 1513 1506 1480 1479 1474 1474 1470 1469 1462 1465 1465 1467 1470 1469 1470 1474 1487 1492 1478 1478 1483 1484 1487 1486 1497 1515 1501 1486 1482 1493 1476 1466 1468 1470 1472 1475 1474 1476
1513 1510 1506 1505 1505 1508 1513 1502 1489 1481 1483 1479 1473 1473 1463 1462 1465 1463 1461 1461 1457 1462 1476 1475 1478 1467 1470 1473 1477 1480 1493 1475 1485 1478 1488 1469 1464 1463 1459 1462 1465 1469 1474 1475 1478
1509 1506 1506 1502 1503 1507 1506 1494 1483 1487 1485 1479 1478 1471 1469 1463 1464 1461 1457 1452 1453 1456 1461 1463 1479 1464 1467 1471 1474 1474 1468 1490 1482 1504 1507 1479 1478 1475 1462 1458 1457 1467 1472 1476 1479
1509 1507 1502 1500 1502 1507 1496 1489 1486 1487 1489 1483 1479 1477 1471 1471 1465 1456 1453 1457 1456 1457 1459 1459 1470 1466 1467 1472 1469 1477 1478 1475 1468 1474 1486 1490 1475 1449 1457 1459 1465 1469 1473 1477 1480
1509 1503 1502 1501 1503 1496 1491 1490 1492 1487 1487 1486 1483 1479 1478 1474 1470 1461 1456 1452 1461 1457 1461 1458 1463 1473 1466 1454 1459 1454 1462 1466 1480 1487 1476 1478 1474 1459 1462 1466 1469 1470 1475 1478 1481
1510 1506 1502 1502 1492 1490 1490 1492 1491 1487 1484 1482 1479 1477 1474 1476 1478 1464 1459 1462 1461 1458 1457 1457 1464 1474 1469 1461 1464 1466 1461 1463 1464 1469 1473 1482 1468 1462 1464 1467 1470 1472 1474 1479 1481
1511 1498 1502 1503 1499 1495 1490 1486 1485 1485 1485 1482 1480 1478 1477 1476 1471 1470 1460 1461 1463 1459 1463 1463 1456 1462 1461 1456 1445 1462 1458 1458 1463 1470 1465 1464 1461 1465 1468 1470 1472 1473 1476 1478 1480
1512 1500 1502 1490 1492 1493 1493 1490 1485 1482 1481 1480 1477 1476 1475 1478 1471 1468 1462 1459 1462 1464 1461 1458 1464 1456 1450 1451 1445 1445 1448 1453 1461 1457 1461 1449 1455 1473 1473 1474 1474 1474 1475 1478 1479
1512 1507 1503 1497 1495 1492 1492 1488 1484 1477 1478 1473 1475 1467 1468 1470 1467 1464 1462 1462 1458 1460 1459 1460 1459 1458 1457 1451 1448 1451 1446 1449 1452 1454 1457 1453 1469 1473 1474 1475 1475 1475 1475 1476 1477
1513 1510 1509 1493 1489 1489 1483 1485 1482 1480 1473 1472 1469 1468 1464 1463 1463 1465 1464 1466 1465 1464 1462 1461 1458 1461 1458 1452 1450 1464 1458 1450 1457 1460 1458 1460 1472 1474 1472 1475 1476 1476 1476 1476 1476